Location: Newark
(55.0331°N, 59.0915°E)
Time: 02:22:52
(UTC+00:00)

N. Korean satellite - Visible Passes

Search period start: 19 September 2020 00:00
Search period end: 29 September 2020 00:00
Orbit: 455 x 503 km, 97.2° (Epoch: 18 September)

Date Brightness Start Highest point End Pass type
(mag) Time Alt. Az. Time Alt. Az. Time Alt. Az.
21 Sep 9.7 00:47:17 10° NE 00:49:58 19° E 00:52:36 10° SE visible
22 Sep 10.3 00:22:44 10° ENE 00:23:39 11° E 00:24:33 10° E visible
24 Sep 9.3 01:02:17 10° NE 01:05:25 25° E 01:08:29 10° SSE visible
25 Sep 9.9 00:36:59 10° NE 00:39:09 15° E 00:41:18 10° SE visible
27 Sep 8.5 01:17:23 10° NNE 01:20:49 35° E 01:24:09 10° SSE visible
28 Sep 9.7 00:51:48 10° NE 00:54:36 20° E 00:57:21 10° SE visible
